Location: Unspecified
(0.0000°N, 0.0000°E)
Time: 21:41:46
(UTC+00:00)

N. Korean satellite - Pass Details

Date: 25 March 2023
Orbit: 390 x 416 km, 97.3° (Epoch: 29 March)

Event Time Altitude Azimuth Distance (km) Brightness Sun altitude
Rises 04:34:30 0° 32° (NNE) 2,281 10.4 -22.9°
Reaches altitude 10° 04:36:44 10° 48° (NE) 1,424 9.6 -22.3°
Maximum altitude 04:39:10 22° 101° (E) 914 8.7 -21.7°
Drops below altitude 10° 04:41:36 10° 154° (SSE) 1,424 9.2 -21.1°
Sets 04:43:50 0° 170° (S) 2,281 10.1 -20.6°
